Temperature
12 12 12 12 11 11 11 11 11 12 12 12 12 12 11 11 11 11 10 11 10 10 9 9 9 9 9 9 8 8 9 9 9 9 10 10 10 10 10 10 11 11 11
12 12 12 12 12 11 11 11 12 12 12 11 11 11 11 11 10 10 9 9 9 9 8 8 8 8 8 8 8 8 8 8 9 9 9 9 10 10 10 10 10 10 10
12 12 12 12 11 11 11 11 12 11 11 11 11 10 10 10 9 9 9 8 8 8 8 8 8 8 8 8 8 8 8 8 8 8 9 9 9 9 9 10 10 10 10
12 12 12 12 11 11 11 11 11 11 11 11 10 10 10 10 9 8 7 7 7 7 7 7 7 7 7 7 7 8 8 8 8 8 8 8 8 8 8 8 8 9 9
13 12 12 12 12 11 11 11 11 11 11 10 10 10 10 9 8 7 6 6 7 7 7 7 7 7 7 7 7 7 7 7 7 7 7 6 6 6 6 6 6 7 7
13 12 12 12 11 11 11 11 11 11 10 10 9 9 9 8 7 6 6 6 6 6 6 6 6 6 6 6 6 6 6 6 6 6 5 5 5 4 4 4 4 4 4
12 12 12 11 11 11 11 11 11 10 10 9 9 8 7 8 7 6 6 6 5 6 6 6 5 6 6 6 6 6 6 5 5 5 4 4 3 3 2 2 2 3 3
12 12 11 11 11 11 11 10 10 9 9 8 7 6 6 6 5 6 6 6 5 5 5 5 5 5 5 5 5 5 5 4 4 4 3 2 1 1 1 1 1 2 2
11 11 11 11 11 10 10 10 9 8 8 7 6 5 5 6 4 4 5 5 4 4 4 5 5 5 4 4 4 4 3 3 3 2 -0 -0 -0 -0 -0 0 1 1 1
11 10 10 10 10 10 10 9 8 8 7 6 5 5 4 3 2 3 3 2 2 2 2 3 3 4 3 3 2 2 2 1 -0 -2 -2 -2 -2 -1 -1 -1 -0 0 0
10 10 10 10 10 9 9 8 7 7 6 5 4 4 3 2 1 0 1 1 1 0 -0 -0 1 1 1 -0 -1 -1 -2 -2 -3 -3 -4 -3 -3 -2 -2 -2 -1 -1 -0
10 10 10 9 9 9 8 7 6 6 5 4 4 3 2 1 0 -0 -0 -0 -0 -1 -1 -1 -1 -1 -2 -2 -2 -3 -3 -3 -3 -4 -5 -4 -4 -4 -3 -3 -2 -2 -2
10 9 9 9 8 8 7 6 6 5 4 4 3 2 2 1 0 -1 -2 -2 -2 -2 -2 -2 -3 -3 -3 -4 -4 -4 -4 -4 -4 -5 -5 -5 -5 -5 -5 -4 -4 -4 -3
9 9 9 8 8 7 6 5 5 4 4 3 2 2 1 1 -0 -1 -2 -3 -3 -2 -2 -2 -3 -4 -5 -5 -6 -6 -6 -6 -6 -6 -6 -6 -6 -6 -6 -5 -5 -5 -4
9 8 8 7 7 6 5 4 4 3 3 2 2 1 1 0 -0 -1 -2 -4 -5 -4 -3 -3 -4 -4 -5 -6 -6 -7 -7 -7 -7 -7 -7 -7 -7 -7 -6 -6 -6 -6 -5
8 8 7 6 6 5 4 4 3 3 2 2 1 1 -0 -1 -1 -2 -3 -4 -5 -5 -5 -5 -5 -5 -6 -7 -7 -7 -7 -7 -7 -7 -7 -7 -7 -7 -7 -7 -7 -6 -6
8 7 6 6 5 4 3 3 3 2 2 1 0 -0 -1 -2 -2 -3 -4 -5 -6 -6 -6 -6 -6 -6 -7 -7 -7 -7 -7 -7 -7 -7 -7 -7 -8 -8 -7 -7 -7 -7 -6
7 6 5 5 4 3 3 2 2 1 1 0 -0 -1 -2 -3 -3 -4 -5 -6 -6 -7 -7 -7 -7 -7 -7 -7 -7 -7 -7 -7 -8 -8 -8 -8 -8 -8 -7 -7 -7 -7 -7
6 5 4 4 3 3 2 2 1 1 0 -0 -1 -2 -2 -3 -4 -5 -6 -7 -7 -7 -8 -8 -8 -7 -7 -7 -7 -7 -7 -8 -8 -8 -8 -8 -8 -8 -8 -8 -7 -7 -7
5 4 3 3 2 2 1 1 0 -0 -1 -1 -2 -3 -3 -4 -5 -6 -7 -7 -8 -8 -8 -8 -8 -7 -7 -7 -7 -8 -8 -8 -8 -8 -8 -8 -8 -8 -8 -8 -7 -7 -7
4 3 3 2 2 1 1 0 -1 -1 -2 -2 -3 -4 -5 -5 -6 -7 -8 -8 -8 -8 -8 -8 -8 -8 -8 -8 -8 -8 -9 -9 -9 -8 -8 -8 -8 -8 -8 -8 -7 -7 -8
3 2 2 1 1 0 -0 -0 -1 -2 -3 -3 -4 -5 -6 -6 -7 -8 -8 -9 -9 -9 -8 -8 -8 -8 -8 -8 -9 -9 -9 -9 -9 -8 -9 -8 -8 -8 -8 -8 -7 -7 -7
2 1 1 1 0 -0 -1 -1 -2 -2 -4 -4 -5 -6 -7 -7 -8 -8 -9 -9 -9 -8 -8 -9 -9 -9 -9 -9 -9 -9 -9 -9 -9 -9 -9 -9 -8 -8 -8 -7 -7 -6 -6
1 1 0 -0 -0 -1 -1 -2 -2 -4 -4 -5 -6 -7 -7 -8 -9 -9 -9 -9 -9 -9 -9 -9 -9 -9 -10 -9 -9 -10 -10 -10 -10 -9 -9 -9 -8 -8 -8 -7 -5 -4 -5
0 -0 -0 -1 -1 -1 -2 -3 -3 -5 -6 -6 -7 -7 -8 -9 -9 -9 -9 -9 -9 -9 -9 -9 -10 -9 -9 -9 -9 -10 -10 -10 -10 -9 -9 -10 -9 -9 -8 -7 -4 -4 -4
-0 -1 -1 -1 -2 -2 -3 -3 -4 -6 -7 -8 -8 -8 -8 -9 -9 -9 -9 -9 -9 -9 -10 -10 -9 -9 -9 -9 -9 -10 -10 -10 -11 -11 -9 -10 -10 -11 -10 -7 -5 -4 -4
Wind_Speed
6 5 4 3 3 3 3 3 3 4 3 4 4 3 3 3 1 2 6 12 13 12 12 13 13 13 13 13 13 12 13 13 14 14 15 15 15 15 15 15 15 15 15
6 6 5 5 5 4 4 4 4 3 3 3 3 3 3 2 0 2 5 9 13 13 13 14 14 14 14 14 14 14 14 15 15 16 16 17 17 17 17 17 17 18 18
9 7 6 5 5 6 5 4 4 3 3 2 2 3 2 2 2 3 4 5 7 11 13 13 14 14 14 14 14 15 15 16 17 17 18 18 18 18 18 19 19 20 20
12 9 7 6 7 6 5 4 3 2 3 4 4 3 3 2 3 4 4 4 4 4 7 11 12 13 14 14 15 15 16 17 18 18 19 19 20 20 20 20 21 21 22
13 11 8 8 8 6 5 4 4 3 4 5 5 4 3 1 3 4 4 3 3 3 4 6 9 11 13 14 15 16 17 18 19 19 20 20 21 21 21 21 22 23 24
13 12 9 9 8 6 5 5 5 5 5 5 5 4 2 0 4 4 3 2 1 2 5 8 10 11 12 14 16 16 17 18 19 20 21 22 22 23 23 23 24 25 26
14 12 9 9 7 6 6 5 4 5 5 5 4 3 1 2 3 4 2 3 3 4 6 10 12 13 12 14 13 15 18 19 20 21 22 23 24 24 25 26 26 27 28
14 11 10 9 8 7 7 6 4 3 4 5 4 4 3 2 2 4 4 4 5 5 8 12 14 14 14 12 12 16 17 19 21 23 24 25 26 26 27 29 29 30 30
13 12 11 10 8 7 7 7 5 4 3 3 4 4 3 3 5 5 5 5 6 7 9 11 13 15 14 11 13 14 18 21 22 24 26 27 28 29 30 31 32 32 32
12 12 12 11 9 8 8 6 5 4 2 2 1 2 3 3 4 5 5 6 7 9 11 10 13 14 13 12 14 18 18 20 24 27 29 30 30 31 32 33 33 34 34
11 12 12 10 9 8 8 6 5 3 2 1 2 2 2 3 5 5 8 9 9 9 9 11 12 12 12 13 15 16 19 23 27 29 30 30 31 32 33 34 35 35 35
9 10 11 10 9 8 7 6 4 3 1 0 1 3 4 4 5 6 8 12 13 11 13 11 9 10 12 15 17 18 23 27 29 30 30 31 32 33 34 35 35 35 35
10 11 9 9 8 8 7 5 3 2 1 2 3 3 4 5 6 7 10 12 14 14 11 8 8 11 13 15 16 21 26 29 30 31 32 34 34 35 35 35 35 35 36
11 11 10 9 9 8 6 4 3 2 2 3 4 5 5 6 6 7 9 11 14 12 11 14 12 10 11 14 19 25 25 28 30 32 34 36 36 36 35 35 36 36 36
11 12 11 9 8 6 5 3 2 1 2 3 4 6 6 6 6 7 8 9 11 14 17 15 10 10 14 18 21 22 24 28 31 33 35 35 35 36 36 36 36 36 36
12 12 10 9 7 5 4 2 1 1 3 4 4 6 7 6 7 8 9 10 11 15 17 13 15 16 16 17 23 24 24 29 31 31 32 34 35 36 36 37 36 36 35
12 11 9 8 6 4 3 2 2 2 4 5 6 7 8 9 8 9 9 10 12 13 18 19 16 17 20 20 19 21 22 23 23 29 31 33 35 35 35 36 36 35 35
11 10 8 7 5 3 2 2 2 4 5 6 7 8 9 8 11 10 10 12 12 14 17 22 19 18 21 21 20 21 18 19 21 27 31 33 34 34 35 35 35 35 35
11 9 7 6 4 2 1 2 4 5 6 8 8 9 10 11 12 11 12 13 13 14 15 18 20 18 18 17 20 20 20 18 19 22 27 29 31 33 34 34 35 35 35
10 8 6 4 3 1 2 3 5 7 8 9 9 9 10 11 13 14 13 14 15 16 17 17 18 18 18 19 18 18 18 17 17 18 22 24 27 30 32 33 33 34 34
8 7 5 3 1 1 2 5 7 8 9 10 10 10 11 13 16 15 14 15 16 16 16 16 18 18 18 18 18 17 18 19 20 18 19 18 18 19 21 25 28 30 31
7 5 3 2 1 2 4 8 9 10 10 10 11 12 12 13 15 19 21 21 21 19 18 18 17 19 22 21 19 18 19 20 20 16 18 20 19 19 19 18 26 32 33
6 4 2 1 2 3 6 9 11 11 11 10 12 12 11 12 16 15 18 21 22 24 23 20 21 21 21 20 21 22 21 21 21 19 19 22 19 20 19 19 30 32 33
4 2 1 2 4 4 7 10 12 12 10 11 12 13 14 15 14 17 18 19 19 18 19 17 18 20 20 20 20 20 21 21 20 17 17 20 20 19 19 19 28 30 30
2 1 1 3 5 6 7 11 13 11 10 12 12 13 14 15 19 22 20 19 19 18 18 20 23 24 27 27 22 16 16 16 18 18 15 13 16 18 19 18 18 23 26
1 1 2 4 5 7 8 11 13 9 11 11 12 13 16 17 20 23 19 18 19 18 17 18 19 19 18 19 20 15 13 14 16 12 10 9 14 13 11 11 13 16 19
Wind_Direction
176 166 159 140 117 107 110 94 81 68 51 38 28 8 358 352 4 89 87 64 63 63 57 47 36 26 15 5 358 353 349 344 340 337 333 329 326 323 320 317 314 310 306
171 159 146 130 117 106 98 96 81 68 49 30 18 5 350 339 252 140 117 88 69 64 57 45 32 20 7 356 347 342 337 333 328 325 321 318 315 314 312 309 307 304 300
163 148 137 128 119 115 111 100 83 61 42 15 355 350 336 315 202 152 132 111 90 70 57 42 27 14 1 349 340 333 328 324 321 318 314 312 309 306 305 304 302 300 297
153 141 133 125 125 119 111 98 81 58 29 359 341 339 317 270 201 158 141 117 88 67 56 35 16 5 354 343 334 328 323 320 316 313 311 307 304 301 299 298 298 297 294
146 136 128 126 127 119 110 99 73 41 20 359 339 333 327 254 179 171 153 125 89 42 9 6 353 349 344 336 329 323 320 316 313 310 307 304 300 297 295 294 294 292 290
137 128 123 127 127 122 116 106 87 58 26 351 330 333 355 138 188 180 183 188 194 331 337 342 338 336 332 328 324 322 320 316 312 309 306 303 300 296 294 293 291 290 287
132 126 125 127 127 120 115 107 91 62 33 358 335 327 219 190 206 199 241 264 263 291 310 332 335 331 324 322 319 320 319 316 313 309 306 303 299 296 293 291 290 288 286
129 127 131 129 124 118 108 94 84 74 46 20 356 331 316 227 185 218 268 269 283 293 315 327 327 322 317 313 311 313 315 314 312 309 305 302 299 296 294 291 289 287 285
122 125 129 125 123 117 106 94 85 75 65 46 21 355 326 309 309 275 274 287 294 305 315 317 315 315 309 304 307 311 312 311 309 307 305 303 300 296 293 290 288 286 284
122 126 126 122 118 113 109 102 90 85 63 43 40 5 324 310 293 299 278 273 287 298 301 303 309 306 300 302 305 304 306 309 308 307 304 301 298 295 292 290 288 287 285
123 127 126 121 117 112 110 110 106 96 75 32 344 318 294 277 269 282 295 302 300 294 297 299 297 294 297 302 303 303 308 308 307 304 301 299 297 295 293 292 290 288 287
130 129 126 122 119 117 118 119 118 119 114 132 291 292 296 292 292 286 290 300 303 303 302 294 288 291 298 304 302 306 308 307 305 302 300 299 297 296 295 294 293 291 289
141 139 133 128 122 121 125 130 134 143 178 248 273 283 280 278 286 283 286 295 298 300 296 288 282 290 296 300 301 307 306 303 302 301 300 299 299 298 297 295 293 291 289
140 138 133 128 127 130 134 141 150 177 231 262 273 280 281 279 280 281 288 298 301 297 293 295 301 298 297 296 297 300 298 297 298 298 298 298 298 297 296 294 292 290 288
136 136 133 131 132 136 142 157 182 213 255 272 281 282 282 285 283 283 283 285 291 299 301 302 299 301 301 298 297 295 294 294 295 295 294 294 295 294 294 293 291 289 287
135 136 136 136 138 142 151 174 211 246 273 283 288 289 291 290 289 286 284 283 281 286 290 293 300 301 303 298 295 295 293 293 292 292 292 293 293 293 293 292 290 288 286
136 137 138 140 142 148 162 200 245 267 283 289 289 291 294 296 294 293 290 286 284 285 289 295 299 302 302 300 299 298 296 295 294 294 295 295 294 293 292 291 290 288 286
134 135 137 139 140 150 185 243 270 279 287 292 294 294 296 299 296 294 292 289 288 288 290 296 299 302 301 302 300 300 300 298 296 296 296 295 294 293 292 290 289 287 286
131 133 137 138 143 161 224 268 282 287 288 289 292 294 297 300 298 298 297 293 291 291 290 293 298 301 301 302 304 302 302 301 299 298 297 295 294 292 291 290 289 288 286
132 134 134 134 145 191 254 279 287 289 289 289 289 289 292 295 298 300 297 295 295 296 295 295 296 300 303 305 306 306 306 305 302 302 297 295 294 294 292 290 288 286 285
127 130 134 141 170 254 284 300 297 292 292 292 291 289 289 292 294 295 295 298 300 298 296 296 297 302 304 307 308 309 306 306 302 302 301 300 299 295 294 290 287 285 284
129 134 140 160 243 287 309 302 304 300 295 293 295 297 297 294 295 298 299 299 296 294 295 296 298 299 301 304 307 306 305 305 305 308 305 301 300 295 294 291 290 290 289
135 144 157 242 289 307 308 308 308 302 296 296 298 299 300 299 303 302 301 299 295 292 291 293 294 295 299 303 303 303 303 301 299 301 302 298 300 297 296 293 294 292 291
141 155 210 291 300 306 312 312 312 302 296 295 297 300 301 303 305 306 304 301 299 297 295 293 292 293 293 295 297 298 299 297 294 294 295 295 299 299 301 298 295 291 289
146 186 280 295 300 307 315 314 315 308 300 300 301 300 300 300 303 307 306 304 303 301 300 298 294 291 292 295 296 297 296 297 298 301 300 292 297 305 301 294 291 294 295
150 282 290 294 299 306 313 313 318 308 305 305 303 301 300 303 307 310 310 308 306 308 309 305 300 298 297 295 295 290 291 293 296 300 298 300 301 312 307 294 298 302 301
Height
1522 1523 1525 1525 1525 1525 1525 1524 1524 1523 1522 1521 1519 1518 1517 1515 1514 1512 1510 1509 1508 1506 1505 1504 1502 1501 1500 1499 1497 1496 1495 1493 1492 1491 1490 1489 1489 1488 1488 1487 1487 1487 1486
1520 1522 1523 1524 1524 1524 1523 1523 1522 1521 1520 1519 1517 1515 1513 1512 1510 1509 1507 1505 1504 1503 1502 1501 1499 1498 1497 1495 1494 1492 1490 1489 1488 1486 1485 1484 1483 1482 1481 1481 1480 1480 1480
1518 1520 1521 1522 1522 1522 1522 1522 1521 1520 1518 1516 1514 1512 1510 1508 1507 1505 1504 1502 1501 1500 1499 1498 1497 1495 1493 1491 1490 1488 1486 1484 1482 1480 1479 1478 1476 1475 1474 1473 1473 1472 1472
1516 1518 1519 1520 1520 1520 1520 1520 1519 1518 1516 1514 1512 1509 1507 1505 1503 1502 1500 1500 1499 1498 1496 1495 1493 1491 1489 1487 1485 1482 1480 1478 1476 1474 1472 1471 1469 1468 1467 1466 1465 1464 1463
1513 1515 1516 1517 1518 1518 1518 1518 1517 1516 1514 1512 1510 1507 1504 1502 1500 1498 1498 1497 1496 1495 1493 1491 1489 1487 1484 1482 1479 1477 1474 1472 1470 1467 1466 1464 1462 1461 1459 1458 1457 1456 1455
1510 1512 1514 1515 1516 1516 1516 1516 1515 1514 1512 1510 1507 1505 1501 1499 1498 1497 1496 1495 1493 1492 1490 1488 1485 1482 1479 1477 1474 1471 1468 1466 1463 1461 1459 1457 1455 1454 1452 1450 1449 1448 1447
1506 1509 1511 1512 1513 1514 1514 1514 1513 1512 1509 1507 1505 1503 1500 1498 1496 1495 1494 1493 1491 1488 1486 1484 1481 1478 1475 1472 1469 1466 1463 1460 1457 1454 1452 1450 1448 1446 1444 1443 1441 1439 1438
1503 1506 1508 1509 1511 1512 1512 1512 1511 1509 1507 1505 1503 1501 1501 1500 1495 1494 1492 1490 1488 1486 1483 1481 1477 1473 1469 1466 1462 1459 1456 1453 1449 1447 1444 1442 1440 1438 1436 1434 1432 1431 1429
1499 1502 1505 1507 1508 1509 1509 1509 1508 1506 1505 1503 1501 1501 1500 1498 1496 1491 1489 1487 1484 1481 1478 1475 1471 1468 1463 1459 1455 1452 1448 1445 1441 1439 1436 1434 1432 1429 1427 1425 1424 1422 1420
1496 1500 1502 1504 1506 1507 1507 1506 1505 1504 1502 1500 1499 1498 1497 1495 1493 1488 1484 1481 1477 1474 1470 1467 1464 1461 1457 1452 1448 1444 1440 1436 1433 1430 1428 1425 1423 1420 1418 1416 1414 1412 1410
1494 1497 1500 1502 1503 1504 1504 1503 1502 1501 1499 1498 1497 1494 1492 1490 1488 1486 1480 1476 1473 1469 1464 1460 1456 1453 1450 1445 1441 1437 1432 1428 1425 1421 1419 1416 1414 1411 1408 1406 1403 1401 1399
1491 1495 1498 1500 1500 1501 1500 1500 1499 1497 1496 1495 1493 1491 1489 1488 1486 1482 1477 1471 1466 1462 1458 1454 1450 1447 1443 1439 1435 1430 1425 1420 1416 1412 1409 1407 1404 1401 1398 1395 1392 1389 1387
1489 1492 1495 1497 1498 1498 1497 1496 1495 1494 1492 1491 1489 1487 1485 1483 1480 1477 1472 1466 1461 1456 1453 1448 1445 1441 1437 1432 1428 1422 1417 1412 1408 1404 1400 1397 1393 1390 1387 1384 1381 1378 1376
1487 1490 1493 1494 1495 1495 1494 1493 1492 1491 1489 1487 1485 1483 1481 1478 1475 1471 1468 1463 1455 1449 1448 1445 1441 1436 1431 1426 1421 1415 1410 1405 1401 1396 1391 1387 1383 1379 1376 1372 1369 1367 1364
1485 1488 1490 1492 1492 1492 1491 1490 1489 1487 1485 1483 1481 1478 1476 1473 1469 1466 1462 1459 1454 1444 1437 1436 1434 1430 1426 1420 1415 1409 1404 1398 1393 1388 1383 1378 1374 1369 1365 1361 1358 1355 1352
1483 1486 1488 1489 1489 1489 1488 1487 1485 1483 1482 1479 1477 1474 1471 1467 1464 1460 1457 1453 1449 1443 1433 1428 1426 1423 1418 1413 1408 1403 1397 1391 1385 1380 1375 1369 1364 1359 1355 1350 1346 1343 1340
1481 1484 1485 1486 1486 1485 1485 1483 1482 1480 1477 1475 1472 1469 1465 1462 1458 1454 1451 1447 1443 1438 1428 1420 1419 1415 1410 1405 1400 1395 1389 1383 1377 1371 1365 1360 1354 1349 1344 1339 1335 1331 1328
1479 1481 1483 1483 1483 1482 1481 1480 1478 1475 1473 1470 1467 1463 1460 1456 1452 1449 1445 1441 1437 1432 1425 1414 1410 1407 1403 1398 1393 1387 1381 1375 1369 1362 1356 1350 1344 1338 1333 1328 1324 1319 1316
1477 1479 1480 1480 1480 1479 1477 1476 1474 1471 1468 1465 1461 1458 1454 1450 1446 1443 1439 1435 1430 1426 1420 1412 1404 1400 1395 1391 1385 1379 1374 1367 1361 1354 1347 1340 1334 1328 1322 1317 1312 1307 1303
1475 1477 1477 1477 1476 1475 1473 1471 1469 1466 1463 1460 1456 1452 1448 1445 1441 1437 1433 1429 1425 1420 1415 1408 1400 1394 1389 1384 1379 1372 1364 1359 1352 1346 1338 1332 1326 1319 1312 1306 1300 1295 1290
1473 1474 1475 1474 1473 1471 1469 1467 1464 1461 1458 1454 1450 1447 1442 1438 1434 1431 1427 1423 1419 1414 1409 1403 1396 1389 1383 1378 1373 1366 1358 1350 1344 1339 1330 1323 1318 1309 1302 1295 1289 1283 1279
1471 1472 1472 1471 1470 1468 1465 1462 1459 1456 1452 1448 1445 1441 1437 1433 1429 1425 1421 1417 1414 1409 1403 1398 1391 1385 1378 1373 1367 1360 1353 1345 1335 1332 1325 1314 1309 1300 1293 1287 1280 1274 1268
1469 1469 1469 1467 1466 1463 1461 1457 1453 1450 1446 1443 1439 1434 1431 1427 1423 1418 1414 1410 1407 1403 1399 1394 1386 1379 1373 1367 1361 1354 1347 1340 1332 1325 1318 1305 1300 1291 1284 1277 1271 1265 1258
1467 1466 1465 1464 1462 1459 1456 1452 1448 1444 1441 1437 1433 1429 1425 1421 1417 1413 1408 1404 1400 1395 1391 1386 1380 1373 1367 1361 1356 1350 1342 1332 1324 1319 1315 1302 1292 1284 1275 1267 1260 1255 1249
1464 1463 1462 1460 1457 1454 1451 1447 1443 1439 1435 1432 1428 1424 1420 1416 1412 1408 1403 1397 1392 1387 1383 1377 1372 1366 1360 1354 1349 1342 1335 1328 1318 1310 1307 1298 1287 1277 1265 1257 1252 1247 1242
1462 1460 1458 1455 1452 1449 1446 1442 1438 1434 1430 1427 1423 1419 1415 1411 1407 1402 1398 1391 1385 1379 1374 1368 1363 1358 1353 1347 1342 1337 1331 1323 1314 1304 1297 1293 1283 1275 1259 1248 1246 1241 1234